MIDAS 4 DEB, 27478

Orbit data source: Space-Track

MIDAS 4 DEB, 27478 is space debris in LEO originally from a launch on Sat, 21 Oct 1961 UTC launched from the Air Force Western Test Range (AFWTR). Debris objects in space refer to the collection of defunct objects orbiting the Earth. Examples of debris include non-operational satellites, rocket bodies, and fragments generated from explosions, collisions, or faulty payload assembly.

Loading next visibility...
Identifier
27478, 1961-028H
Orbit
LEO
Country
Flag of USUS
Related business
Manufacturer
Unknown
Mission
Spacecraft
Bus & Motor
Unknown
Mass
Unknown
Launch date (UTC)
1961-10-21 (65 years ago)
Launch vehicle
Unknown
Launch site
Air Force Western Test Range (AFWTR)
Object type
Payload
Rocket body
Debris
Shape & HBR
Unknown shape, 1.1 m
Radar Cross Section
Medium (>0.1 m² and <1 m²)

Expand to show TLE details & history
Last TLE update: 3 weeks ago

TLE from 3 weeks ago
0 MIDAS 4 DEB
1 27478U 61028H   26152.16799943  .00000000  00000-0  14663-2 0  9991
2 27478  95.8498 214.8227 0262605 344.8235  36.4725  8.66661089589402
Epoch: 2026-06-01T04:01Z
TLE epoch observation values (Epoch: 2026-06-01T04:01:55.150Z)
Latitude
23.01865°
Longitude
-97.80104°
Altitude
3,426.676 km
Speed
6.444 km/s
True Right ascension
14h 09m 21s
True Declination
22° 55' 44"
Sunlit
Object was in daylight at epoch
Visualization orbit readout
Latitude
Unknown
Longitude
Unknown
Altitude
Unknown
Speed
Unknown
Apparent Right ascension
Unknown
Apparent Declination
Unknown
Sunlit
N/A
Visualization observer readout
Local Sidereal Time
00:50:41
Azimuth
Unknown
Elevation
Unknown
Doppler factor
Unknown
Orbital elements
Apogee altitude
3,894.162 km
Perigee altitude
3,368.456 km
Semi-major axis
10,009.446 km
Eccentricity
0.02626
Inclination
95.8498°
RAAN
214.8227°
Arg. of periapsis
344.8235°
True anomaly
38.30943°
Mean anomaly
36.4725°
Eccentric anomaly
37.38608°
Mean motion
2.16735 °/min
Orbital period
166.1 mins
BSTAR
0.0014663
Loading maneuver chart data...
Computing Atmospheric mass density...
Loading historical data...
Loading historical data...
Loading historical data...
Loading historical data...
Loading historical data...
Loading historical data...
Loading historical data...

Documentation

Showing up to 5 results
|